Home > Weather > Kalgoorlie > Past weeks

Flag for Australia Past Weather in Kalgoorlie, Western Australia, Australia — Yesterday and Last 2 Weeks

Now
48 °F

Clear.


Feels Like: 45 °F
Forecast: 51 / 62 °F
Wind: 7 mph from Southeast

Location: Kalgoorlie Boulder Amo

Current Time: Jun 1, 2016 at 2:14:39 AM

Latest Report: Jun 1, 2016 at 1:30 AM


Visibility: N/A

Pressure: 30.15 "Hg

Humidity: 66%

Dew Point: 37 °F

Location of KalgoorlieLocation

Past Weather in Kalgoorlie — Graph

°F

Kalgoorlie Temperature Yesterday

Maximum temperature yesterday: 66 °F (at 2:30 PM)
Minimum temperature yesterday: 41 °F (at 5:00 AM)
Average temperature yesterday: 52 °F

High & Low Weather Summary for the Past Weeks

 TemperatureHumidityPressure
High73 °F (May 20, 11:30 AM)100% (May 23, 6:46 AM)30.27 "Hg (May 23, 6:46 AM)
Low37 °F (May 30, 7:00 AM)12% (May 17, 3:30 PM)29.74 "Hg (May 24, 11:30 AM)
Average56 °F56%30.06 "Hg
* Reported May 17 1:00 AM — Jun 1 1:00 AM, Kalgoorlie, Weather by CustomWeather, © 2016

Note: Actual official high and low records may vary slightly from our data, if they occured in-between our weather recording intervals... More about our weather records

Advertising

Kalgoorlie Weather History for the Previous 24 Hours

Scroll right to see more
 ConditionsComfort  
Time TempWeatherWind HumidityBarometerVisibility
1:00 AM
Wed, Jun 1
48 °FClear.6 mph66%30.15 "HgN/A
12:00 AM48 °FPassing clouds.2 mph66%30.15 "HgN/A
11:30 PM
Tue, May 31
50 °FPassing clouds.7 mph62%30.15 "HgN/A
11:00 PM52 °FPassing clouds.6 mph58%30.15 "HgN/A
10:00 PM54 °FOvercast.6 mph54%30.15 "HgN/A
9:30 PM54 °FOvercast.6 mph54%30.15 "HgN/A
9:00 PM52 °FPartly cloudy.5 mph58%30.15 "HgN/A
8:30 PM54 °FPassing clouds.5 mph58%30.15 "HgN/A
8:00 PM54 °FPassing clouds.5 mph58%30.15 "HgN/A
7:30 PM54 °FPassing clouds.3 mph58%30.15 "HgN/A
7:00 PM55 °FPassing clouds.3 mph51%30.15 "HgN/A
6:30 PM55 °FClear.3 mph51%30.12 "HgN/A
6:00 PM57 °FClear.7 mph48%30.12 "HgN/A
5:30 PM59 °FClear.6 mph45%30.12 "HgN/A
5:00 PM61 °FClear.8 mph39%30.09 "HgN/A
4:30 PM63 °FPassing clouds.10 mph37%30.09 "HgN/A
4:00 PM64 °FClear.10 mph37%30.09 "HgN/A
3:30 PM64 °FSunny.9 mph37%30.09 "HgN/A
3:00 PM64 °FSunny.8 mph37%30.09 "HgN/A
2:30 PM66 °FSunny.8 mph35%30.09 "HgN/A
2:00 PM64 °FSunny.10 mph37%30.09 "HgN/A
1:00 PM64 °FPartly sunny.8 mph40%30.09 "HgN/A
12:00 PM61 °FOvercast.5 mph45%30.12 "HgN/A
11:30 AM61 °FSunny.7 mph45%30.15 "Hg10 mi
11:00 AM59 °FSunny.7 mph45%30.15 "Hg10 mi
10:30 AM57 °FSunny.6 mph51%30.15 "Hg10 mi
10:00 AM54 °FSunny.6 mph58%30.18 "Hg10 mi
9:00 AM48 °FSunny.7 mph66%30.18 "Hg10 mi
8:30 AM46 °FSunny.7 mph71%30.18 "Hg10 mi
8:00 AM45 °FSunny.6 mph76%30.18 "Hg10 mi
7:30 AM43 °FSunny.5 mph81%30.18 "Hg10 mi
7:00 AM43 °FPartly sunny.5 mph81%30.18 "HgN/A
6:30 AM43 °FOvercast.5 mph81%30.15 "HgN/A
6:00 AM41 °FOvercast.5 mph87%30.15 "HgN/A
5:30 AM43 °FOvercast.5 mph81%30.15 "HgN/A
5:00 AM41 °FPassing clouds.3 mph87%30.15 "HgN/A
4:30 AM43 °FClear.7 mph76%30.12 "HgN/A
4:00 AM43 °FClear.7 mph76%30.12 "HgN/A
3:30 AM43 °FClear.7 mph81%30.12 "HgN/A
3:00 AM43 °FClear.3 mph81%30.12 "HgN/A
2:00 AM43 °FClear.5 mph81%30.12 "HgN/A
Weather by CustomWeather, © 2016

See weather overviewHow to use our weather pages